www.pogodaiklimat.ru

Погода и климат >> Архив погоды >> Россия >> Алтайский край >> Чарышское


ПОГОДА в Чарышском

  • Прогноз погоды в Чарышском
  • Монитор погоды в Чарышском
  • Климат города

АРХИВ ПОГОДЫ в Чарышском

Время (UTC), дата Ветер
(напр.,м/с)
 
Видим.   Явления Облачность Т
(С)
Тd
(С)
f
(%)
Тe
(С)
Тes
(С)
Комфортность P
(гПа)
Po
(гПа)
Тmin
(С)
Tmax
(С)
R
(мм)
R24
(мм)
S
(см)
18 19.06 штиль 0 50 км ясно +16.1 +13.8 86 +16 +16 1008.6 959.2
21 19.06 штиль 0 50 км ясно +13.8 +12.3 91 +13 +13 1008.3 958.5
00 20.06 штиль 0 50 км ясно +14.1 +12.6 91 +14 +15 1008.0 958.4 +13.0
03 20.06 Ю 1 50 км ясно +24.8 +14.7 53 +27 +39 жарко 1004.3 956.6
06 20.06 СЗ 3 50 км 10/0
[Ci fib]
+30.7 +13.7 35 +32 +44 жарко 1001.4 954.6
09 20.06 СЗ 2 50 км 4/0
[Ci fib]
+31.9 +14.2 34 +33 +45 жарко 999.5 953.0
12 20.06 З 4 50 км 9/6 1000 м
[Cb cap Ac und Cs]
+26.3 +16.4 54 +30 +30 душно 1001.6 954.2 +32.7
15 20.06 З 1 50 км 8/0
[Ci sp]
+20.0 +15.5 75 +23 +23 комфорт 1004.7 956.2
18 20.06 штиль 0 50 км 4/0
[Ci sp]
+16.5 +14.3 87 +16 +16 1004.2 955.0
21 20.06 СЗ 1 50 км 10/0
[Cs]
+16.8 +14.9 89 +18 +18 1003.7 954.7
00 21.06 ЮЗ 1 50 км 10/10 1000 м
[Cb cap]
+17.5 +15.6 89 +19 +19 1003.6 954.8 +16.3
03 21.06 СЗ 1 50 км {ливн. осадки} 9/3 1000 м
[Cb cap Ac As Cs]
+21.4 +16.7 75 +25 +30 комфорт 1004.1 955.9
06 21.06 В 1 50 км слабый ливневой дождь, в посл. час гроза 7 баллов +20.0 +17.6 86 +24 +30 комфорт 1007.2 958.7
09 21.06 Ю 1 50 км 1/1 1000 м
[Cb calv]
+26.8 +17.9 58 +31 +45 душно 1003.0 955.6
12 21.06 Ю 3 50 км гроза без осадков 9/8 1000 м
[Cb calv Cs]
+24.9 +11.7 44 +26 +27 жарко 1003.5 955.8 +29.1 3
15 21.06 ЮВ 1 50 км в посл. час гроза 9/3 1000 м
[Cb cap Ci fib]
+20.6 +16.8 79 +25 +25 комфорт 1005.5 957.1
18 21.06 штиль 0 50 км {гроза} 4/0
[Ci fib]
+17.0 +15.2 89 +17 +17 1007.0 957.9
21 21.06 штиль 0 50 км в посл. час гроза ясно +17.0 +16.2 95 +17 +17 1006.5 957.4
00 22.06 штиль 0 50 км {гроза} ясно +15.7 +15.4 98 +15 +17 1005.5 956.3 +15.7 5
03 22.06 Ю 1 50 км 9/3 1000 м
[Cb cap Ac As]
+22.2 +16.4 70 +26 +30 душно 1004.2 956.0
06 22.06 ЮЗ 1 50 км {гроза, ливн. осадки} 10/6 1000 м
[Cb cap Ac As]
+25.5 +17.7 62 +30 +32 душно 1005.1 957.5
09 22.06 В 3 50 км 8/1 1000 м
[Sc Ac cast Ci fib]
+28.1 +16.1 48 +31 +37 душно 1002.0 954.8
12 22.06 З 2 50 км 4/1 1000 м
[Cb calv Ci fib]
+29.5 +17.5 48 +34 +36 очень
душно
1001.9 955.0 +29.7 1
15 22.06 СЗ 1 50 км 4/1 1000 м
[Cb calv Ci fib]
+22.8 +18.3 76 +28 +28 душно 1005.0 956.9
18 22.06 штиль 0 50 км ясно +17.9 +16.2 90 +18 +18 1006.8 957.9
21 22.06 ЮЗ 1 50 км ясно +16.8 +15.4 91 +18 +18 1007.9 958.7
00 23.06 СЗ 1 20 км туман местами 3/0
[Ci fib]
+16.7 +15.4 92 +18 +19 1007.1 958.2 +15.9
03 23.06 штиль 0 50 км 4/0
[Ci fib]
+25.1 +17.0 61 +29 +41 душно 1005.3 957.5
06 23.06 СЗ 2 50 км 3/0
[Ci fib]
+28.6 +15.6 45 +31 +48 жарко 1003.7 956.7
09 23.06 С 3 50 км 3/0
[Ci fib]
+29.8 +15.7 42 +33 +43 душно 1001.7 954.9
12 23.06 Ю 2 50 км 4/1 1000 м
[Cb calv Ci fib]
+29.4 +17.0 47 +33 +36 душно 1001.8 954.9 +30.1
15 23.06 ЮВ 6 50 км гроза без осадков 10 баллов +22.8 +13.0 54 +26 +26 жарко 1005.4 957.3
18 23.06 ЮВ 1 50 км 6 баллов +18.6 +15.1 80 +21 +21 комфорт 1004.7 956.0
21 23.06 З 1 50 км 8/3 1000 м
[Cb cap Ac trans Ci fib]
+16.3 +13.8 85 +17 +17 1004.7 955.5
00 24.06 СЗ 1 50 км 10/3 1000 м
[Cb cap Ac As]
+16.9 +14.4 85 +18 +18 1005.1 956.1 +16.1 0.4
03 24.06 ЮВ 2 50 км {ливн. осадки} 4/1 1000 м
[Cb cap Ci fib]
+23.2 +15.6 62 +27 +36 душно 1002.3 954.4
06 24.06 ЮВ 4 50 км 4/0
[Ac trans Ci fib]
+30.6 +14.0 36 +32 +41 жарко 998.9 952.2
09 24.06 ЮЗ 1 50 км гроза без осадков 8/8 1000 м
[Cb cap]
+28.8 +14.1 41 +31 +34 жарко 998.8 952.0
12 24.06 С 3 50 км {гроза} 9/9 1000 м
[Cb cap]
+25.9 +13.7 47 +28 +28 жарко 1000.5 952.9 +32.1 0.0
15 24.06 ЮВ 2 50 км 10/10 1000 м
[Cb cap]
+22.7 +15.9 65 +27 +27 душно 1001.9 954.0
18 24.06 ЮВ 1 50 км 10/10 1000 м
[Cb cap]
+20.9 +14.3 66 +25 +25 комфорт 1002.5 954.1
21 24.06 З 1 50 км 10/10 1000 м
[Cb cap]
+19.1 +14.3 74 +21 +21 комфорт 1002.9 954.3
00 25.06 Ю 1 50 км 3/1 1000 м
[Cb cap Ci fib]
+20.9 +13.0 61 +25 +26 комфорт 1003.7 955.4 +18.4
03 25.06 ЮЗ 2 50 км 8/5 1000 м
[Cb cap Ci fib]
+24.6 +13.4 50 +27 +31 жарко 1003.7 955.9
06 25.06 З 2 50 км 10/6 1000 м
[Cb cap Ac As Ci fib]
+21.6 +13.0 58 +24 +28 комфорт 1006.2 957.8
09 25.06 СЗ 3 50 км в посл. час ливневой дождь 9/8 1000 м
[Cb cap Ci fib]
+20.5 +16.2 76 +24 +26 комфорт 1007.5 959.0
12 25.06 СЗ 2 50 км 8/6 1000 м
[Cb cap Ac As Ci fib]
+22.4 +15.4 65 +26 +27 жарко 1007.8 959.4 +24.9 0.4
15 25.06 ЮВ 1 50 км 3/1 1000 м
[Cb cap Ac As]
+19.0 +15.5 80 +21 +21 комфорт 1009.4 960.5
18 25.06 ЮВ 1 50 км ясно +14.5 +12.9 90 +15 +15 1011.0 961.2
21 25.06 штиль 0 50 км ясно +12.8 +11.6 92 +12 +12 1011.6 961.4
00 26.06 СЗ 1 50 км 10/0
[Ac und]
+13.5 +12.5 94 +14 +14 1012.1 962.1 +12.4
03 26.06 Ю 1 50 км в посл. час ливневой дождь 10/6 1000 м
[Cb cap Ac As]
+17.4 +14.6 84 +18 +20 1012.4 963.0
06 26.06 ЮЗ 2 50 км {ливн. осадки} 3/1 1000 м
[Cb cap Ac trans Ci sp]
+24.1 +15.1 57 +27 +41 жарко 1010.2 962.1
09 26.06 СЗ 3 50 км 3/3 1000 м
[Cu Sc]
+26.4 +11.5 39 +28 +35 жарко 1008.6 960.8
12 26.06 С 2 50 км 3/1 1000 м
[Cb cap Ac cast]
+26.8 +13.1 43 +29 +31 жарко 1008.2 960.6 +27.3 0.0
15 26.06 Ю 1 50 км ясно +19.9 +14.4 71 +23 +23 комфорт 1010.1 961.3

 

Местоположение метеостанции Чарышское (Алтайский край, Россия): широта 51.38 долгота 83.58 высота над уровнем моря 429 м.

В архиве по умолчанию представлена погода в Чарышском за последнюю неделю. Архивные данные за месяц целиком и за предыдущие месяцы, начиная с января 2011 года, Вы можете получить, выбрав интересующий диапазон дат из раскрывающегося списка и нажав кнопку "Ввод!".

Внимание! Время в таблицах - всемирное. Для получения местного времени необходимо прибавить поправку, которая в Чарышском равна 7 ч.

Смотрите также архив погоды в соседних городах и на ближайших метеорологических станциях:

Погода в Солонешном (Алтайский край, Россия) (59 км)
Погода в Краснощеково (Алтайский край, Россия) (67 км)
Погода в Усть-Калманке (Алтайский край, Россия) (83 км)
Погода в Усть-Кане (Алтай, Россия) (96 км)
Погода в Змеиногорске (Алтайский край, Россия) (101 км)
Погода в Усть-Чарышской Пристани (Алтайский край, Россия) (114 км)
Погода в Белокурихе (Алтайский край, Россия) (117 км)
Погода в Риддере (Восточно-Казахстанская область, Казахстан) (117 км)
Погода в Шипуново (Алтайский край, Россия) (125 км)
Погода в Секисовке (Восточно-Казахстанская область, Казахстан) (136 км)

Пояснения к столбцам:

Ветер - указаны скорость ветра в м/с - средняя за 10 мин, порывы в срок и между сроками (в фигурных скобках) и направление, откуда дует ветер: С - северный, СВ - северо-восточный, В - восточный, ЮВ - юго-восточный, Ю - южный, ЮЗ - юго-западный, З - западный, СЗ - северо-западный.
Видимость - горизонтальная дальность видимости в метрах или километрах. При видимости от 1 до 10 км при отсутствии осадков обычно наблюдается дымка, при ухудшении видимости до 1 км и менее - туман. В сухую погоду видимость может ухудшаться дымом, пылью или мглою.
Явления - указаны атмосферные явления, наблюдавшиеся в срок или в последний час перед сроком; фигурными скобками обозначены явления, наблюдавшиеся между сроками (за 1-3 часа до срока); квадратными скобками обозначены град или гололедные отложения с указанием их диаметра в мм.
Облачность - указаны через наклонную черту общая и нижняя облачность в баллах и высота нижней границы облаков в метрах; квадратными скобками обозначены формы облаков: Ci - перистые, Cs - перисто-слоистые, Cc - перисто-кучевые, Ac - высококучевые, As - высокослоистые, Sc - слоисто-кучевые, Ns - слоисто-дождевые, Cu - кучевые, Cb - кучево-дождевые. Подробнее классификацию облаков см. в Атласе облаков (PDF).
T - Температура воздуха - температура, измеренная на высоте 2 м над землей.
Td - Температура точки росы - температура, при понижении до которой содержащийся в воздухе водяной пар достигнет насыщения.
f - Относительная влажность воздуха - влажноcть воздуха, измеренная на высоте 2 м над землей.
Te - Эффективная температура - температура, которую ощущает одетый по сезону человек в тени. Характеристика душности погоды. При расчете учитывается влияние влажности воздуха и скорости ветра на теплоощущения человека.
Tes - Эффективная температура на солнце - температура, которую ощущает человек, с поправкой на солнечный нагрев. Характеристика знойности погоды. Зависит от высоты солнца над горизонтом, облачности и скорости ветра. Ночью, в пасмурную погоду, а также при ветре 12 м/с и более поправка равна нулю.
P - Атмосферное давление - приведенное к уровню моря атмосферное давление.
Po - Атмосферное давление - измеренное на уровне метеостанции атмосферное давление.
Tmin - Минимальная температура - минимум температуры воздуха на высоте 2 м над землей.
Tmax - Максимальная температура - максимум температуры воздуха на высоте 2 м над землей.
R - Количество осадков - Количество выпавших осадков за период времени, мм. При наведении курсора мыши на число - период времени, за который выпало указанное количество осадков.
R24 - Количество осадков - Количество выпавших осадков за 24 часа, мм.
S - Снежный покров - Высота снежного покрова, см. При наведении курсора мыши на число - состояние снежного покрова и степень покрытия местности в баллах.